AFL795 LTAI-UWKD

Flight info

Callsign AFL795
Flight time N/A
Altitude 27000
Route ADBEL R55 MUT/N0431F280 A285 SELVI/N0422F270 A285 SIV/N0453F350 UW706 TBN/N0415F270 G67 SARPI/N0451F350 DCT LURIS/K0830F350 A955 MKL G96 IPLED N37 AKT/K0837F370 N60 ATR/K0839F360 M158 URL M161 MOF T793 TONSI TONSI1T
Aircraft A320/M-SDE3FGHIRWY/LB1

Departure

Time 2026-05-07 15:51
Airport Antalya International Airport (LTAI)

Arrival

Time N/A
Airport Kazan International Airport (UWKD)
Time Latitude Longitude Altitude Speed Heading
2026-05-07 15:24 36.89783 30.80017 196 ft 0 kts 89°
2026-05-07 15:41 36.89783 30.79989 203 ft 4 kts 90°
2026-05-07 15:41 36.89784 30.79955 201 ft 4 kts 100°
2026-05-07 15:41 36.89792 30.79927 199 ft 4 kts 151°
2026-05-07 15:42 36.89800 30.79922 207 ft 0 kts 187°
2026-05-07 15:44 36.89780 30.79919 199 ft 6 kts 186°
2026-05-07 15:44 36.89715 30.79910 200 ft 12 kts 187°
2026-05-07 15:44 36.89633 30.79920 202 ft 12 kts 142°
2026-05-07 15:45 36.89615 30.80023 197 ft 13 kts 96°
2026-05-07 15:45 36.89604 30.80138 200 ft 14 kts 96°
2026-05-07 15:45 36.89593 30.80261 203 ft 15 kts 96°
2026-05-07 15:45 36.89581 30.80392 195 ft 16 kts 95°
2026-05-07 15:46 36.89560 30.80645 192 ft 9 kts 88°
2026-05-07 15:46 36.89599 30.80698 191 ft 8 kts
2026-05-07 15:46 36.89651 30.80706 202 ft 7 kts
2026-05-07 15:47 36.89712 30.80715 194 ft 11 kts
2026-05-07 15:47 36.89804 30.80727 203 ft 16 kts
2026-05-07 15:47 36.89929 30.80743 200 ft 20 kts
2026-05-07 15:47 36.90082 30.80761 192 ft 23 kts
2026-05-07 15:48 36.90242 30.80782 202 ft 24 kts
2026-05-07 15:48 36.90408 30.80805 194 ft 24 kts
2026-05-07 15:48 36.90578 30.80831 193 ft 25 kts
2026-05-07 15:48 36.90752 30.80854 191 ft 26 kts
2026-05-07 15:49 36.90934 30.80879 201 ft 22 kts
2026-05-07 15:49 36.90981 30.80901 196 ft 6 kts 46°
2026-05-07 15:49 36.90989 30.80947 197 ft 7 kts 96°
2026-05-07 15:49 36.90981 30.81031 195 ft 13 kts 96°
2026-05-07 15:50 36.90973 30.81116 201 ft 6 kts 109°
2026-05-07 15:50 36.90941 30.81118 193 ft 5 kts 196°
2026-05-07 15:50 36.90832 30.81101 193 ft 42 kts 186°
2026-05-07 15:50 36.90307 30.81027 197 ft 107 kts 186°
2026-05-07 15:51 36.89384 30.80903 195 ft 158 kts 186°
2026-05-07 15:51 36.88253 30.80775 596 ft 166 kts 177°
2026-05-07 15:51 36.87093 30.80959 1232 ft 167 kts 170°
2026-05-07 15:51 36.85947 30.81196 1838 ft 167 kts 171°
2026-05-07 15:52 36.84793 30.81406 2392 ft 168 kts 171°
2026-05-07 15:52 36.83634 30.81611 2905 ft 169 kts 172°
2026-05-07 15:52 36.82462 30.81818 3384 ft 172 kts 172°
2026-05-07 15:52 36.81651 30.81962 3528 ft 185 kts 172°
2026-05-07 15:53 36.80302 30.82206 3697 ft 207 kts 169°
2026-05-07 15:53 36.78881 30.82855 3851 ft 230 kts 153°
2026-05-07 15:53 36.77364 30.83783 4056 ft 255 kts 153°
2026-05-07 15:53 36.75717 30.84825 4381 ft 274 kts 146°
2026-05-07 15:54 36.74360 30.86492 5012 ft 278 kts 119°
2026-05-07 15:54 36.73711 30.88739 5720 ft 277 kts 94°
2026-05-07 15:54 36.73511 30.91136 6478 ft 279 kts 93°
2026-05-07 15:54 36.73324 30.93551 7228 ft 281 kts 93°
2026-05-07 15:55 36.73136 30.95985 7938 ft 284 kts 93°
2026-05-07 15:55 36.72957 30.98238 8682 ft 304 kts 94°
2026-05-07 15:55 36.72728 31.00925 10335 ft 317 kts 90°
2026-05-07 15:55 36.72701 31.03803 10955 ft 360 kts 88°
2026-05-07 15:56 36.72745 31.06774 12705 ft 374 kts 84°